OBJECT D

基本信息
目录编号:
69505
目录名称:
OBJECT D
国际标识:
2026-132D
轨道中心:
EARTH
物体状态:
在轨
发射日期:
2026-06-12 UTC
国别:
(TBD)
轨道信息
数据来源: 国际轨道数据
星历时间: 2026-06-12T11:34:11+0800
半长轴: 6954.476km
偏心率: 0.00157
轨道倾角: 97.677°
近地点辐角: 41.709°
升交点赤经: 226.871°
平近点角: 318.533°
近地点: 565.42km
远地点: 587.258km
周期: 96.196分钟
每日圈数: 14.969463
详细信息
发射场:
TNSTA
轨道高度:
LEO
数据来源:
AOE Integration Group
参考系:
TEME
时间系统:
UTC
历元类型:
SGP4
2D轨道图
3D轨道图
轨道高度分析图
轨道倾角分析图
轨道综合分析图
查看轨道综合分析图